User: anonymous   Login
Location: Chiroubles
(46.1812°N, 4.6660°E)
Time: 18:25:00
(UTC+00:00)
Language:

Cosmos 2219 - Orbit

View from above orbital plane
View from above orbital plane
View from above satellite
View from above satellite

Ground track
Ground track

The orbit data is extracted from the following two-line orbital elements,

1 22219U 92076A   20296.09017978  .00000115  00000-0  85828-4 0  9992
2 22219  71.0607 163.1701 0019821 316.9008  43.0561 14.13655737441039
Epoch (UTC): 22 October 2020 02:09:51
Eccentricity: 0.0019821
inclination: 71.0607°
perigee height: 832 km
apogee height: 861 km
right ascension of ascending node: 163.1701°
argument of perigee: 316.9008°
revolutions per day: 14.13655737
mean anomaly at epoch: 43.0561°
orbit number at epoch: 44103

The dashed part of the orbit path shows where the satellite is in the earth's shadow,  

DLR